Temperature
13 13 14 14 14 14 14 14 14 15 15 15 15 15 15 15 15 15 15 15 15 15 15 15 15 15 15 15 15 15 14 14 14 14 14 14 14 15 15 15 14 14 15
13 13 13 14 14 14 14 14 14 14 14 14 15 15 15 15 15 15 15 15 15 15 15 15 15 15 15 15 15 14 14 14 14 14 14 14 14 14 14 14 14 14 14
13 13 13 13 13 14 14 14 14 14 14 14 14 14 14 14 15 15 15 15 15 15 15 14 15 15 14 14 14 14 14 14 14 14 14 13 14 14 14 14 14 14 14
13 13 13 13 13 13 13 14 14 14 14 14 14 14 14 14 14 14 14 14 14 14 14 14 14 14 14 14 14 14 14 14 14 14 13 13 13 14 14 14 14 14 14
13 13 13 13 13 13 13 13 14 14 14 14 14 14 14 14 14 14 14 14 14 14 14 14 14 14 14 14 14 14 14 14 14 13 13 13 13 14 14 14 14 14 14
13 13 13 13 13 13 13 13 13 13 13 14 14 14 14 14 14 14 14 14 14 14 14 14 14 14 14 14 14 14 14 14 13 13 13 13 13 13 13 14 13 13 13
12 12 13 13 13 13 13 13 13 13 13 13 13 14 13 13 13 14 14 14 14 14 14 14 14 14 14 14 14 14 14 14 13 13 13 13 13 13 13 13 13 13 13
12 12 12 12 12 13 13 13 13 13 13 13 13 13 13 13 13 13 13 13 13 14 14 14 13 14 13 13 13 13 13 13 13 13 13 12 13 13 13 13 13 13 13
12 12 12 12 12 12 12 12 12 13 13 13 13 13 13 13 13 13 13 13 13 13 13 13 13 13 13 13 13 13 13 13 12 12 12 12 13 13 13 13 13 13 13
11 12 12 12 12 12 12 12 12 12 12 12 13 13 13 13 13 13 13 13 13 13 13 13 13 13 13 13 13 13 13 13 12 12 12 12 13 13 13 13 12 13 13
11 11 11 12 12 11 11 12 12 12 12 12 12 12 12 12 12 12 12 13 13 13 13 13 13 13 13 12 12 12 12 12 12 12 12 12 12 12 12 12 12 12 12
11 11 11 11 11 11 11 11 11 11 12 12 12 12 12 12 12 12 12 12 12 12 12 12 12 12 12 12 12 12 12 11 11 12 12 12 12 12 12 12 12 12 12
10 11 11 11 11 11 11 11 11 11 11 11 11 11 11 11 11 11 11 11 12 12 12 12 12 11 11 11 11 11 11 11 11 11 11 12 12 12 12 12 12 12 11
10 10 10 10 10 11 11 11 11 11 11 11 11 11 11 11 11 11 11 11 11 11 11 11 11 11 11 11 11 11 11 11 11 11 11 11 11 11 11 11 11 11 11
10 10 10 10 10 10 10 10 10 10 10 10 10 10 10 10 11 11 11 11 11 11 11 11 11 11 10 10 10 10 11 11 11 11 11 11 11 11 11 11 11 11 11
10 10 10 10 10 10 10 10 10 10 10 10 10 10 10 10 10 10 10 10 10 10 10 10 10 10 10 10 10 10 10 10 10 10 10 10 10 10 10 10 10 10 10
9 9 9 9 10 10 10 10 10 10 10 10 10 10 10 10 10 10 10 10 10 10 10 10 10 10 10 10 10 10 10 10 10 10 10 10 10 10 10 10 10 10 10
9 9 9 9 9 9 9 9 9 9 9 9 9 9 9 9 9 9 9 9 10 9 9 9 9 9 9 9 9 9 9 10 10 10 9 9 9 9 9 10 10 9 9
9 9 9 9 9 9 9 9 9 9 9 9 9 9 9 9 9 9 9 9 9 9 9 9 9 9 9 9 9 9 9 9 9 9 9 9 9 9 9 9 9 9 9
9 9 9 9 9 9 9 9 9 9 9 9 8 8 8 8 8 8 8 8 8 8 9 8 8 9 8 9 9 9 9 9 9 9 9 9 9 9 9 9 9 9 9
9 9 9 9 8 8 8 8 8 8 8 8 8 8 8 8 8 8 8 8 8 8 8 8 8 8 8 8 8 8 8 8 8 8 8 8 8 8 8 8 8 8 8
8 8 8 8 8 8 8 8 8 8 8 8 8 8 8 8 8 8 8 8 8 8 8 8 8 8 8 8 7 7 7 7 7 7 8 8 8 8 8 8 8 8 8
8 8 8 8 8 8 8 8 8 7 7 7 7 7 7 7 7 7 7 7 7 7 7 7 7 7 7 7 7 7 7 7 6 7 7 7 7 7 7 7 7 7 7
7 7 7 7 7 7 7 7 7 7 7 7 7 7 7 7 7 7 7 7 7 7 7 7 7 7 7 7 7 7 7 7 6 6 6 7 7 7 7 7 7 7 7
7 7 7 7 7 7 7 7 7 7 7 7 7 7 7 7 7 7 7 6 6 6 6 7 7 6 6 6 6 7 7 6 6 6 6 6 6 6 6 7 7 7 7
7 7 7 7 7 7 7 7 7 7 7 6 6 6 6 6 6 6 6 6 6 6 6 6 6 6 6 6 6 6 6 6 6 6 5 5 5 6 6 6 6 6 6
Wind_Speed
2 2 2 1 1 2 3 3 4 5 5 6 7 7 7 7 7 8 8 7 8 8 9 10 10 11 11 11 12 12 12 12 12 12 11 11 11 12 11 9 9 12 13
3 2 2 1 1 2 2 3 3 5 5 6 6 7 7 6 6 7 7 7 7 8 9 9 10 11 11 11 11 11 11 11 11 11 10 11 11 10 10 9 9 11 12
3 1 2 2 2 2 2 3 3 4 5 6 6 6 6 6 6 6 6 7 7 8 9 9 10 10 10 11 11 11 10 10 9 8 6 8 10 10 10 10 11 11 11
3 1 2 3 2 1 2 3 3 3 4 5 5 5 5 6 5 6 6 6 6 8 9 9 10 10 10 10 10 10 9 9 7 4 5 7 8 9 9 10 10 10 10
2 2 2 3 2 2 2 2 2 3 4 4 4 5 4 5 5 5 6 6 7 7 8 9 10 10 10 10 9 9 8 8 6 4 7 6 7 9 9 10 10 10 9
3 3 2 3 2 2 1 2 2 3 4 4 4 4 4 4 5 5 6 6 6 7 8 9 9 10 10 10 9 9 8 7 6 6 6 6 7 9 9 10 10 10 9
3 3 2 3 2 2 2 1 2 2 3 4 3 4 4 5 5 5 6 6 7 8 8 9 9 9 10 10 9 9 8 6 5 6 6 6 8 9 9 9 9 9 9
3 3 3 3 2 2 1 0 1 2 3 3 3 3 3 4 5 5 5 6 7 7 8 9 9 9 9 10 10 9 8 6 6 6 6 7 9 8 9 9 9 10 10
3 3 3 3 2 1 1 0 0 1 2 3 3 3 3 4 4 4 5 6 6 7 8 9 8 8 9 9 9 8 8 5 5 6 5 6 8 7 8 9 9 10 11
3 3 3 3 2 2 1 1 0 1 2 3 3 3 3 4 5 4 4 5 6 7 8 8 8 8 8 9 8 8 8 5 5 5 4 6 7 6 8 9 9 10 10
3 3 4 3 2 2 2 2 2 2 2 3 3 3 4 4 4 4 4 5 6 7 8 8 8 8 8 8 8 7 6 5 5 4 4 6 6 6 7 7 8 9 9
4 4 3 4 3 2 2 2 2 2 2 3 3 3 3 3 3 3 5 5 6 7 7 7 7 7 6 6 7 6 5 4 4 4 5 6 5 6 6 7 8 8 8
4 4 3 4 3 2 2 2 2 1 1 1 2 3 3 3 3 3 3 4 5 6 6 6 6 5 5 5 5 5 4 3 3 4 5 5 5 5 6 6 7 7 7
4 4 4 4 3 2 2 1 1 0 0 0 1 2 2 2 2 3 3 2 3 4 4 5 4 5 5 5 5 5 5 3 3 3 4 5 5 5 6 6 7 7 7
4 4 4 3 3 2 2 1 1 1 0 1 1 2 2 2 2 2 2 3 2 4 4 4 4 5 4 4 4 4 4 4 4 4 4 5 5 6 6 6 7 7 7
5 4 4 4 3 2 2 1 1 1 1 1 1 2 3 2 2 2 2 2 2 3 4 5 5 5 4 3 3 3 3 3 3 3 4 5 6 6 6 6 6 7 8
5 5 4 4 3 3 2 2 1 1 2 2 2 2 2 3 3 2 2 3 3 3 4 4 5 5 4 3 3 3 3 3 3 3 3 4 5 5 5 5 5 6 7
5 4 4 3 2 2 2 2 1 1 2 2 3 3 3 3 3 3 2 2 3 4 3 3 4 4 4 3 3 2 2 2 2 3 3 3 3 3 4 5 5 6 5
5 4 3 3 3 2 2 2 2 2 2 2 2 3 4 4 4 3 3 2 4 3 3 3 4 4 4 3 3 2 2 2 2 2 2 3 3 3 3 4 5 5 5
4 3 3 3 2 2 2 2 1 1 1 1 2 2 4 4 4 3 3 3 4 3 3 3 4 4 4 3 3 2 1 1 2 2 2 2 2 3 3 3 4 4 4
3 3 2 2 2 2 2 2 2 2 2 2 2 2 3 4 4 4 3 3 4 3 4 4 4 4 3 3 2 2 1 1 2 1 2 2 2 2 2 2 2 2 2
3 3 3 2 2 2 2 2 2 2 2 2 2 2 3 4 4 4 4 4 4 3 4 5 4 4 3 3 3 3 2 2 2 1 1 2 2 2 2 2 2 2 2
3 3 3 3 3 3 2 2 2 1 1 2 2 2 2 3 4 4 5 4 4 4 4 4 5 4 4 3 3 2 3 3 1 2 2 2 2 2 2 2 3 3 3
3 3 3 3 3 3 3 3 3 3 3 3 2 2 2 3 4 5 5 5 5 4 5 5 4 4 5 4 2 2 2 1 2 2 2 3 3 3 3 3 3 4 3
3 3 3 3 3 3 3 4 4 3 3 2 2 2 2 2 3 4 5 5 5 4 5 5 5 4 5 5 3 2 1 1 3 3 3 3 3 3 3 4 4 4 4
2 2 2 3 3 3 3 4 4 4 3 3 3 3 2 2 2 3 4 4 4 4 5 5 5 6 5 5 4 3 3 2 3 3 3 4 4 3 4 4 5 4 4
Wind_Direction
341 330 1 13 53 91 102 114 124 134 129 133 133 131 130 126 126 129 126 123 119 118 116 113 110 109 104 101 99 97 95 91 90 89 88 87 90 91 90 90 94 92 91
326 323 45 21 58 99 108 118 118 135 136 132 132 132 133 135 132 129 131 130 128 125 121 118 114 113 108 105 102 99 96 93 92 91 96 96 90 92 91 82 70 90 94
351 7 85 44 67 89 101 115 121 134 140 133 131 135 140 139 137 132 131 133 134 133 130 125 118 114 109 107 106 103 99 97 97 98 118 109 100 95 94 91 90 93 95
360 34 72 59 66 86 115 119 125 133 135 133 136 141 151 152 147 139 135 135 136 135 133 127 121 117 113 111 109 108 105 104 105 127 113 102 105 99 97 96 93 91 93
17 29 54 54 62 96 127 136 142 140 142 143 142 147 148 150 147 143 140 136 138 138 135 130 126 124 121 116 112 111 110 110 119 128 102 102 102 102 98 96 93 92 93
17 19 46 43 50 74 117 141 161 164 157 152 153 155 156 154 153 148 147 140 141 141 136 133 130 127 125 121 116 113 111 118 140 116 107 104 103 106 102 99 96 92 92
8 4 26 33 28 46 71 141 152 172 169 163 163 160 161 163 158 153 149 146 141 142 139 136 133 131 129 126 120 115 111 119 127 112 108 102 99 104 103 100 99 96 96
10 8 15 15 10 21 29 69 148 154 164 161 163 161 158 155 160 152 154 150 146 145 144 138 137 136 132 128 123 120 118 129 124 113 107 102 99 103 104 102 100 100 98
18 16 9 359 345 317 320 355 216 175 156 158 160 157 152 150 151 149 150 153 147 143 141 137 137 137 133 130 126 123 121 129 129 117 111 105 104 106 107 107 104 100 95
16 12 0 352 340 316 284 240 227 196 170 164 159 146 151 155 151 141 142 141 146 143 138 136 134 134 134 131 128 129 132 148 132 124 118 111 112 112 110 109 106 102 98
353 355 352 348 339 321 307 280 236 203 190 179 172 154 172 180 166 159 144 134 142 144 139 137 135 128 131 131 129 132 149 152 136 125 118 107 120 121 115 115 114 109 104
318 328 335 330 326 315 313 299 271 243 211 206 198 179 177 169 158 159 130 130 136 142 141 137 137 142 150 148 141 152 160 154 141 130 120 114 131 130 121 119 124 119 112
293 306 320 320 315 313 312 292 301 282 243 230 180 169 173 161 151 158 146 149 152 154 153 145 154 163 163 154 159 162 156 153 145 135 127 124 140 141 133 126 127 132 129
289 297 308 316 309 299 299 290 284 288 290 49 132 169 181 170 165 162 159 166 175 167 157 158 165 155 154 153 158 156 151 153 149 135 120 127 139 141 138 137 132 137 135
284 288 298 302 295 294 285 285 265 225 198 161 161 183 191 187 184 176 163 162 174 169 161 157 159 152 144 142 148 150 147 146 148 144 125 118 132 133 133 139 139 137 137
282 284 287 279 275 271 263 261 238 200 167 157 185 193 190 192 186 179 176 168 171 172 167 163 161 152 142 138 140 141 143 146 143 139 134 119 118 126 130 136 141 137 135
280 281 279 270 265 256 243 235 210 188 187 169 170 181 178 186 179 177 184 174 172 169 164 159 155 149 139 137 142 140 136 140 142 141 136 133 129 121 130 137 143 141 135
283 275 274 271 263 254 237 232 214 193 195 187 177 177 181 182 180 176 181 179 168 170 164 164 159 152 150 153 150 140 128 127 144 144 143 142 140 133 117 121 138 146 144
286 276 268 264 250 244 235 217 202 196 200 195 188 182 188 180 178 175 177 169 164 166 167 168 165 158 157 152 148 137 125 137 142 146 145 139 143 144 135 120 127 139 148
285 275 268 267 260 247 232 210 199 200 211 200 193 196 190 183 177 173 171 167 161 159 162 167 163 150 153 147 135 122 112 136 148 159 164 155 160 156 153 149 141 133 143
293 283 276 267 258 241 227 219 217 217 219 214 208 200 191 186 182 178 177 166 165 167 166 165 164 150 144 145 145 133 125 141 157 162 167 174 170 159 148 150 146 146 147
296 289 278 260 241 228 233 234 229 219 220 224 223 200 196 193 190 185 179 172 170 166 162 164 168 164 164 172 176 173 187 192 189 206 203 206 198 173 169 170 167 172 181
293 285 270 266 251 233 228 217 199 193 207 215 223 210 206 194 189 181 184 177 176 172 173 175 179 177 175 186 195 197 203 214 198 209 226 224 220 216 204 198 207 208 206
286 280 270 267 258 237 216 211 209 215 221 224 217 209 202 193 186 177 182 179 180 180 179 179 182 188 179 183 193 225 243 225 207 208 215 221 233 242 233 223 224 220 222
282 278 272 263 255 237 218 213 212 221 224 216 200 192 190 186 181 176 175 177 181 184 185 181 179 190 193 192 195 195 190 209 226 230 233 225 235 239 241 235 231 230 233
282 275 272 259 252 234 218 214 211 214 212 203 203 195 187 183 180 176 176 179 187 192 192 188 182 190 198 197 197 197 204 210 218 229 242 237 243 244 246 244 236 231 230
Height
1532 1532 1532 1532 1532 1532 1533 1533 1533 1534 1534 1534 1534 1534 1535 1535 1536 1536 1536 1536 1537 1537 1537 1537 1538 1538 1538 1538 1539 1539 1539 1540 1540 1540 1541 1541 1541 1541 1542 1542 1543 1543 1542
1532 1532 1532 1532 1532 1532 1532 1533 1533 1533 1533 1534 1534 1534 1535 1535 1536 1536 1536 1536 1537 1537 1537 1538 1538 1539 1539 1539 1540 1540 1540 1541 1541 1541 1542 1542 1542 1543 1543 1543 1543 1544 1544
1532 1532 1532 1532 1532 1532 1532 1532 1532 1533 1533 1533 1533 1534 1534 1535 1535 1536 1536 1536 1537 1537 1537 1538 1538 1539 1539 1540 1540 1541 1541 1541 1542 1542 1543 1544 1544 1544 1544 1544 1544 1545 1545
1531 1531 1531 1531 1531 1531 1531 1531 1532 1532 1532 1533 1533 1533 1534 1534 1535 1535 1536 1536 1536 1537 1537 1538 1539 1539 1539 1540 1540 1541 1541 1542 1543 1543 1545 1545 1545 1545 1545 1545 1545 1545 1546
1531 1531 1531 1530 1530 1531 1531 1531 1531 1531 1531 1532 1532 1533 1533 1534 1534 1535 1535 1536 1536 1537 1537 1538 1538 1539 1540 1540 1541 1541 1542 1542 1543 1544 1545 1545 1546 1545 1546 1546 1546 1546 1546
1531 1530 1530 1530 1530 1530 1530 1530 1530 1530 1531 1531 1531 1532 1532 1533 1534 1534 1535 1535 1536 1536 1537 1538 1538 1539 1540 1540 1541 1542 1542 1543 1544 1545 1545 1546 1546 1546 1546 1547 1547 1547 1547
1530 1530 1529 1529 1529 1529 1529 1529 1529 1529 1529 1530 1530 1531 1531 1532 1532 1533 1534 1535 1535 1536 1537 1537 1538 1539 1539 1540 1541 1542 1542 1543 1545 1545 1546 1546 1546 1546 1547 1547 1547 1547 1548
1529 1529 1528 1528 1528 1528 1528 1528 1528 1528 1528 1529 1529 1529 1530 1530 1531 1532 1533 1534 1534 1535 1536 1537 1538 1538 1539 1540 1541 1542 1543 1543 1545 1545 1546 1546 1546 1547 1547 1547 1548 1548 1548
1528 1528 1527 1526 1526 1526 1526 1526 1526 1526 1527 1527 1527 1528 1528 1529 1530 1531 1532 1533 1533 1534 1535 1536 1537 1538 1539 1539 1540 1541 1542 1543 1545 1545 1546 1546 1546 1547 1547 1548 1548 1548 1549
1527 1527 1526 1525 1525 1525 1525 1525 1524 1525 1525 1525 1526 1526 1527 1527 1528 1529 1530 1531 1532 1533 1534 1535 1536 1537 1538 1539 1540 1541 1542 1543 1545 1545 1546 1546 1546 1547 1547 1548 1548 1549 1549
1526 1525 1524 1524 1523 1523 1523 1522 1522 1523 1523 1523 1524 1524 1525 1525 1526 1527 1528 1529 1531 1532 1533 1534 1535 1536 1537 1538 1539 1541 1542 1543 1544 1545 1545 1545 1546 1547 1547 1548 1548 1548 1549
1524 1523 1523 1522 1521 1521 1520 1520 1520 1521 1521 1521 1522 1522 1523 1524 1524 1525 1527 1528 1529 1530 1532 1533 1534 1535 1536 1538 1539 1540 1541 1542 1543 1544 1544 1545 1545 1546 1547 1547 1548 1548 1548
1522 1522 1521 1520 1519 1519 1518 1518 1518 1518 1519 1519 1520 1520 1521 1522 1522 1523 1525 1526 1527 1529 1530 1531 1532 1534 1535 1536 1537 1539 1540 1541 1542 1543 1543 1544 1544 1545 1546 1546 1547 1547 1548
1520 1519 1518 1518 1517 1517 1516 1516 1516 1516 1516 1517 1517 1518 1519 1519 1520 1521 1523 1524 1525 1527 1528 1529 1530 1532 1533 1535 1536 1538 1539 1540 1541 1541 1542 1542 1543 1544 1545 1545 1546 1546 1547
1518 1517 1516 1515 1515 1514 1514 1514 1514 1514 1513 1514 1515 1515 1516 1517 1518 1519 1520 1522 1523 1524 1526 1527 1528 1530 1531 1533 1535 1536 1537 1538 1539 1540 1541 1541 1542 1543 1544 1544 1545 1545 1546
1515 1514 1513 1513 1512 1511 1511 1511 1511 1511 1512 1512 1512 1513 1513 1515 1516 1516 1517 1519 1521 1522 1523 1525 1527 1528 1530 1531 1533 1534 1536 1537 1538 1539 1540 1540 1541 1542 1543 1543 1544 1544 1545
1512 1511 1510 1510 1509 1509 1508 1509 1509 1509 1509 1510 1510 1510 1511 1512 1513 1514 1515 1516 1518 1520 1521 1523 1525 1526 1528 1530 1531 1532 1534 1535 1536 1537 1538 1539 1540 1541 1541 1542 1543 1543 1544
1510 1509 1508 1507 1506 1506 1506 1506 1506 1507 1507 1507 1507 1508 1508 1509 1510 1512 1513 1514 1516 1518 1519 1521 1522 1524 1526 1528 1529 1531 1532 1533 1535 1535 1536 1537 1538 1539 1540 1540 1541 1542 1542
1507 1506 1505 1505 1504 1504 1504 1504 1504 1504 1504 1504 1505 1505 1506 1507 1508 1509 1511 1512 1513 1515 1517 1519 1520 1522 1524 1526 1527 1528 1530 1531 1532 1533 1534 1535 1536 1537 1538 1538 1539 1540 1540
1505 1503 1502 1502 1501 1501 1502 1502 1502 1502 1502 1502 1502 1503 1504 1504 1505 1507 1508 1509 1511 1513 1514 1517 1518 1520 1522 1524 1525 1526 1527 1528 1530 1531 1532 1533 1534 1535 1535 1536 1537 1538 1538
1502 1501 1500 1499 1499 1499 1499 1499 1499 1499 1499 1499 1500 1500 1501 1502 1503 1504 1505 1507 1508 1510 1512 1514 1516 1518 1520 1521 1523 1524 1525 1526 1527 1528 1529 1530 1531 1532 1533 1534 1534 1535 1535
1500 1499 1498 1497 1496 1496 1496 1496 1497 1497 1496 1497 1497 1497 1498 1499 1500 1501 1503 1504 1506 1507 1509 1511 1514 1515 1517 1519 1521 1522 1524 1526 1525 1526 1527 1527 1528 1529 1530 1531 1531 1532 1533
1497 1496 1495 1495 1494 1494 1494 1494 1494 1494 1494 1494 1495 1495 1496 1496 1497 1498 1500 1502 1503 1505 1507 1509 1511 1513 1514 1517 1519 1521 1522 1522 1523 1523 1523 1524 1525 1526 1527 1528 1528 1529 1530
1494 1494 1493 1492 1492 1492 1491 1491 1491 1491 1491 1491 1492 1492 1493 1494 1494 1496 1497 1499 1501 1502 1504 1506 1508 1510 1512 1513 1516 1517 1519 1519 1520 1520 1521 1522 1522 1523 1524 1524 1525 1525 1526
1492 1491 1490 1490 1490 1489 1489 1489 1489 1489 1489 1489 1489 1490 1491 1491 1492 1493 1495 1496 1498 1500 1502 1503 1505 1508 1510 1511 1513 1514 1515 1516 1517 1518 1518 1518 1519 1520 1520 1520 1521 1522 1522
1489 1489 1488 1487 1487 1487 1486 1486 1486 1486 1486 1487 1487 1487 1488 1489 1490 1491 1492 1494 1496 1497 1499 1501 1502 1505 1507 1509 1510 1511 1513 1514 1515 1515 1515 1515 1515 1516 1516 1516 1517 1517 1518